sat.trackr.live / text

‹ back to catalog

ABS-2A (MONGOLSAT-1)

NORAD 41588 · 2016-038A

PAYLOAD ACTIVE UNKNOWN

§ Identity

Operator
Country
ABS
Launch date
2016-06-15
Launch site
AFETR
Launch vehicle
Mass (kg)
RCS (m²)
11.92

Purposes: comms

External: N2YO · Heavens-Above · Gunter

§ Orbital elements

Epoch: 2026-05-24T22:57:54.717120Z

Period
1,436.16 min
Inclination
0.0160°
Eccentricity
0.0001601
Mean motion
1.00267480 rev/d
Perigee alt
35,781.1 km
Apogee alt
35,794.6 km
Semi-major
42,165.9 km
B*
0.0000e+0
RAAN
290.5246°
Arg perigee
75.6348°
Mean anomaly
295.5967°
Rev number
3,647

§ Raw data

ABS-2A (MONGOLSAT-1)1 41588U 16038A   26144.95688330  .00000000  00000+0  00000+0 0  99912 41588   0.0160 290.5246 0001601  75.6348 295.5967  1.00267480 36475

JSON: /api/v1/satellites/41588 · /tle

For live sub-satellite position, see the globe view (requires WebGL).

§ Visibility from observer

Set your observer location to see the next 7 days of passes ≥ 10°. The values pass through the URL so the page stays shareable.

No JS? Fill the form by hand. The geolocation button needs JavaScript.